BOCF13 EGNX-KMIA

Flight info

Callsign BOCF13
Flight time N/A
Altitude 30000
Route TNT Q4 WAL/N0479F300 L10 PENIL M144 BAGSO DCT RINUS/N0481F320 DCT MALOT/M083F320 NATE RIKAL/N0476F340 N572A TOPPS DCT HTO DCT BEADS DCT SWL DCT SKARP AR22 HOAGG BNFSH3
Aircraft B77L/H-SDE1E2E3FGHIJ2J3J4J5M1RWXY/LB1D1

Departure

Time 2026-05-05 10:19
Airport East Midlands Airport (EGNX)

Arrival

Time N/A
Airport Miami International Airport (KMIA)
Time Latitude Longitude Altitude Speed Heading
2026-05-05 10:08 52.82724 -1.35216 305 ft 0 kts 178°
2026-05-05 10:13 52.82742 -1.35217 305 ft 4 kts 178°
2026-05-05 10:13 52.82770 -1.35218 305 ft 4 kts 178°
2026-05-05 10:13 52.82793 -1.35220 306 ft 3 kts 206°
2026-05-05 10:13 52.82809 -1.35198 306 ft 3 kts 232°
2026-05-05 10:14 52.82820 -1.35171 307 ft 3 kts 257°
2026-05-05 10:14 52.82821 -1.35162 306 ft 0 kts 268°
2026-05-05 10:16 52.82821 -1.35196 305 ft 9 kts 271°
2026-05-05 10:16 52.82856 -1.35257 306 ft 8 kts 353°
2026-05-05 10:16 52.82892 -1.35188 308 ft 12 kts 78°
2026-05-05 10:16 52.82895 -1.35043 308 ft 13 kts 88°
2026-05-05 10:17 52.82919 -1.34946 310 ft 8 kts 30°
2026-05-05 10:17 52.82972 -1.34937 311 ft 8 kts
2026-05-05 10:17 52.83026 -1.34935 310 ft 8 kts
2026-05-05 10:17 52.83061 -1.34878 310 ft 7 kts 74°
2026-05-05 10:18 52.83063 -1.34847 307 ft 2 kts 86°
2026-05-05 10:18 52.83064 -1.34823 307 ft 3 kts 86°
2026-05-05 10:18 52.83068 -1.34588 306 ft 51 kts 88°
2026-05-05 10:18 52.83087 -1.33528 313 ft 131 kts 88°
2026-05-05 10:19 52.83125 -1.31619 364 ft 193 kts 87°
2026-05-05 10:19 52.83125 -1.29470 1220 ft 186 kts 92°
2026-05-05 10:19 52.83002 -1.27317 2014 ft 190 kts 95°
2026-05-05 10:19 52.82985 -1.25043 2206 ft 207 kts 73°
2026-05-05 10:20 52.83796 -1.23008 2321 ft 224 kts 33°